FENGYUN 1C DEB, 31388

Orbit data source: Space-Track

FENGYUN 1C DEB, 31388 is space debris in SSO originally from a launch on Mon, 10 May 1999 UTC launched from the Taiyaun Space Center, China (TSC). Fengyun 1C debris stems from the Chinese weather satellite Fengyun-1C, which was intentionally destroyed by a Chinese anti-satellite missile in 2007. This event dramatically increased the amount of space debris, with thousands of trackable fragments posing hazards to satellites and human spaceflight. The Fengyun 1C debris cloud has become a focal point in discussions about space sustainability and the need for international regulations to prevent the creation of new debris.

Loading next visibility...
Identifier
31388, 1999-025BSU
Orbit
SSO
Country
Flag of CNCN / PRC
Related business
Manufacturer
Unknown
Mission
Spacecraft
Bus & Motor
Unknown
Mass
Unknown
Launch date (UTC)
1999-05-10 (27 years ago)
Launch vehicle
Unknown
Launch site
Taiyaun Space Center, China (TSC)
Object type
Payload
Rocket body
Debris
Shape & HBR
Unknown shape, 0.1 m
Radar Cross Section
Medium (>0.1 m² and <1 m²)

Expand to show TLE details & history
Last TLE update: 14 hours ago

TLE from 14 hours ago
0 FENGYUN 1C DEB
1 31388U 99025BSU 26237.91332514  .00000188  00000-0  13569-3 0  9990
2 31388  98.8264 224.7222 0046375 200.0942 190.1080 14.07546895   395
Epoch: 2026-08-25T21:55Z
TLE epoch observation values (Epoch: 2026-08-25T21:55:11.292Z)
Latitude
29.76694°
Longitude
-83.31714°
Altitude
904.567 km
Speed
7.386 km/s
True Right ascension
14h 38m 36s
True Declination
29° 37' 19"
Sunlit
Object was in daylight at epoch
Visualization orbit readout
Latitude
Unknown
Longitude
Unknown
Altitude
Unknown
Speed
Unknown
Apparent Right ascension
Unknown
Apparent Declination
Unknown
Sunlit
N/A
Visualization observer readout
Local Sidereal Time
02:58:37
Azimuth
Unknown
Elevation
Unknown
Doppler factor
Unknown
Orbital elements
Apogee altitude
898.549 km
Perigee altitude
831.369 km
Semi-major axis
7,243.096 km
Eccentricity
0.00464
Inclination
98.8264°
RAAN
224.7222°
Arg. of periapsis
200.0942°
True anomaly
190.01526°
Mean anomaly
190.108°
Eccentric anomaly
190.06158°
Mean motion
3.52093 °/min
Orbital period
102.25 mins
BSTAR
0.00013569
Loading maneuver chart data...
Computing Atmospheric mass density...

Documentation

Showing up to 5 results
|